www.pogodaiklimat.ru

Погода и климат >> Архив погоды >> Австралия >> Западная Австралия >> Остров Адель


ПОГОДА на Острове Адель

  • Прогноз погоды на Острове Адель
  • Монитор погоды на Острове Адель

АРХИВ ПОГОДЫ на Острове Адель

Время (UTC), дата Ветер
(напр.,м/с)
 
Видим.   Явления Облачность Т
(С)
Тd
(С)
f
(%)
Тe
(С)
Тes
(С)
Комфортность P
(гПа)
Po
(гПа)
Тmin
(С)
Tmax
(С)
R
(мм)
R24
(мм)
S
(см)
03 9.06 СЗ 3 н/о н/о +27.5 +23 +23 комфорт 1015.2 1014.6
06 9.06 ЮВ 5 н/о н/о +27.0 +22 +22 комфорт 1013.4 1012.8
09 9.06 штиль 0 н/о н/о +26.9 +22 +22 комфорт 1013.7 1013.1
12 9.06 штиль 0 н/о н/о +25.9 +22 +22 комфорт 1015.0 1014.4
15 9.06 штиль 0 н/о н/о +25.6 +21 +21 комфорт 1014.3 1013.7
18 9.06 штиль 0 н/о н/о +25.5 +21 +21 комфорт 1012.6 1012.0
21 9.06 СВ 4 н/о н/о +26.0 +22 +22 комфорт 1012.0 1011.4
00 10.06 ЮВ 4 н/о н/о +26.6 +22 +22 комфорт 1013.9 1013.3
03 10.06 В 4 н/о н/о +26.6 +22 +22 комфорт 1013.0 1012.4
06 10.06 ЮЗ 4 н/о н/о +26.1 +22 +22 комфорт 1011.0 1010.4
09 10.06 Ю 4 н/о н/о +25.6 +21 +21 комфорт 1011.8 1011.2
12 10.06 Ю 4 н/о н/о +25.5 +21 +21 комфорт 1013.5 1012.9
15 10.06 ЮЗ 5 н/о н/о +25.7 +21 +21 комфорт 1014.0 1013.4
18 10.06 Ю 4 н/о н/о +25.5 +21 +21 комфорт 1013.7 1013.1
21 10.06 ЮВ 4 н/о н/о +25.8 +21 +21 комфорт 1014.0 1013.4
00 11.06 В 4 н/о н/о +26.5 +22 +22 комфорт 1015.6 1015.0
03 11.06 Ю 6 н/о н/о +27.2 +22 +22 комфорт 1015.2 1014.6
06 11.06 Ю 5 н/о н/о +27.4 +23 +23 комфорт 1013.5 1012.9
09 11.06 Ю 5 н/о н/о +26.6 +22 +22 комфорт 1014.1 1013.5
12 11.06 Ю 7 н/о н/о +26.4 +22 +22 комфорт 1015.3 1014.7
15 11.06 Ю 8 н/о н/о +26.1 +22 +22 комфорт 1015.7 1015.1
18 11.06 Ю 7 н/о н/о +25.3 +21 +21 комфорт 1014.7 1014.1
21 11.06 Ю 7 н/о н/о +24.2 +20 +20 1015.3 1014.7
00 12.06 ЮВ 7 н/о н/о +25.5 +21 +21 комфорт 1017.0 1016.4
03 12.06 В 6 н/о н/о +26.9 +22 +22 комфорт 1015.8 1015.2
06 12.06 Ю 7 н/о н/о +27.6 +23 +23 комфорт 1013.4 1012.8
09 12.06 Ю 7 н/о н/о +27.0 +22 +22 комфорт 1013.3 1012.7
12 12.06 Ю 6 н/о н/о +27.1 +22 +22 комфорт 1014.5 1013.9
15 12.06 Ю 6 н/о н/о +26.6 +22 +22 комфорт 1014.6 1014.0
18 12.06 Ю 5 н/о н/о +25.8 +21 +21 комфорт 1013.4 1012.8
21 12.06 ЮВ 7 н/о н/о +24.9 +21 +21 комфорт 1013.2 1012.6
00 13.06 ЮВ 7 н/о н/о +26.8 +22 +22 комфорт 1014.6 1014.0
03 13.06 ЮВ 7 н/о н/о +27.4 +23 +23 комфорт 1014.0 1013.4
06 13.06 В 5 н/о н/о +27.8 +23 +23 комфорт 1012.1 1011.5
09 13.06 СВ 2 н/о н/о +27.1 +22 +22 комфорт 1012.7 1012.1
12 13.06 Ю 3 н/о н/о +27.1 +22 +22 комфорт 1014.7 1014.1
15 13.06 Ю 4 н/о н/о +27.1 +22 +22 комфорт 1014.5 1013.9
18 13.06 Ю 4 н/о н/о +26.2 +22 +22 комфорт 1013.7 1013.1
21 13.06 ЮВ 4 н/о н/о +25.5 +21 +21 комфорт 1013.2 1012.6
00 14.06 В 5 н/о н/о +27.8 +23 +23 комфорт 1014.3 1013.7
03 14.06 Ю 7 н/о н/о +27.9 +23 +23 комфорт 1013.3 1012.7
06 14.06 ЮВ 5 н/о н/о +28.1 +23 +23 комфорт 1010.9 1010.3
09 14.06 Ю 4 н/о н/о +27.2 +22 +22 комфорт 1011.2 1010.6
12 14.06 В 2 н/о н/о +27.6 +23 +23 комфорт 1013.4 1012.8
15 14.06 З 4 н/о н/о +27.1 +22 +22 комфорт 1013.3 1012.7
18 14.06 Ю 5 н/о н/о +26.3 +22 +22 комфорт 1012.6 1012.0
21 14.06 ЮВ 5 н/о н/о +25.3 +21 +21 комфорт 1013.2 1012.6
00 15.06 ЮВ 6 н/о н/о +27.6 +23 +23 комфорт 1014.7 1014.1
03 15.06 ЮВ 6 н/о н/о +28.9 +24 +24 комфорт 1014.5 1013.9
06 15.06 ЮВ 5 н/о н/о +28.9 +24 +24 комфорт 1012.3 1011.7
09 15.06 ЮВ 3 н/о н/о +27.4 +23 +23 комфорт 1012.4 1011.8
12 15.06 штиль 0 н/о н/о +27.3 +23 +23 комфорт 1014.2 1013.6
15 15.06 ЮЗ 5 н/о н/о +26.7 +22 +22 комфорт 1014.1 1013.5
18 15.06 Ю 6 н/о н/о +25.7 +21 +21 комфорт 1013.4 1012.8
21 15.06 ЮВ 6 н/о н/о +24.1 +20 +20 1013.2 1012.6
00 16.06 ЮВ 6 н/о н/о +26.4 +22 +22 комфорт 1015.3 1014.7

 

Местоположение метеостанции Остров Адель (Западная Австралия, Австралия): широта -15.51 долгота 123.15 высота над уровнем моря 5 м.

В архиве по умолчанию представлена погода на Острове Адель за последнюю неделю. Архивные данные за месяц целиком и за предыдущие месяцы, начиная с января 2011 года, Вы можете получить, выбрав интересующий диапазон дат из раскрывающегося списка и нажав кнопку "Ввод!".


*Определитесь, кто Вы:
робот инопланетянин человек

Внимание! Время в таблицах - всемирное. Для получения местного времени необходимо прибавить поправку, которая равна 8 ч.

Смотрите также архив погоды в соседних городах и на ближайших метеорологических станциях:

Погода на Острове Брауз (Западная Австралия, Австралия) (162 км)
Погода в Дерби (Северная территория, Австралия) (213 км)
Погода на Базе ВВС Curtin (Западная Австралия, Австралия) (241 км)
Погода в Робак Запад (Западная Австралия, Австралия) (280 км)
Погода в Бруме (Западная Австралия, Австралия) (289 км)
Погода на Острове Троутон (Западная Австралия, Австралия) (378 км)
Погода в Трускотте (Западная Австралия, Австралия) (382 км)
Погода в Фицрой-Кроссинге (Западная Австралия, Австралия) (392 км)
Погода в Калумбуру (Западная Австралия, Австралия) (400 км)
Погода в Роули Шоалс (Западная Австралия, Австралия) (501 км)

Пояснения к столбцам:

Ветер - указаны скорость ветра в м/с - средняя за 10 мин, порывы в срок и между сроками (в фигурных скобках) и направление, откуда дует ветер: С - северный, СВ - северо-восточный, В - восточный, ЮВ - юго-восточный, Ю - южный, ЮЗ - юго-западный, З - западный, СЗ - северо-западный.
Видимость - горизонтальная дальность видимости в метрах или километрах. При видимости от 1 до 10 км при отсутствии осадков обычно наблюдается дымка, при ухудшении видимости до 1 км и менее - туман. В сухую погоду видимость может ухудшаться дымом, пылью или мглою.
Явления - указаны атмосферные явления, наблюдавшиеся в срок или в последний час перед сроком; фигурными скобками обозначены явления, наблюдавшиеся между сроками (за 1-3 часа до срока); квадратными скобками обозначены град или гололедные отложения с указанием их диаметра в мм.
Облачность - указаны через наклонную черту общая и нижняя облачность в баллах и высота нижней границы облаков в метрах; квадратными скобками обозначены формы облаков: Ci - перистые, Cs - перисто-слоистые, Cc - перисто-кучевые, Ac - высококучевые, As - высокослоистые, Sc - слоисто-кучевые, Ns - слоисто-дождевые, Cu - кучевые, Cb - кучево-дождевые. Подробнее классификацию облаков см. в Атласе облаков (PDF).
T - Температура воздуха - температура, измеренная на высоте 2 м над землей.
Td - Температура точки росы - температура, при понижении до которой содержащийся в воздухе водяной пар достигнет насыщения.
f - Относительная влажность воздуха - влажноcть воздуха, измеренная на высоте 2 м над землей.
Te - Эффективная температура - температура, которую ощущает одетый по сезону человек в тени. Характеристика душности погоды. При расчете учитывается влияние влажности воздуха и скорости ветра на теплоощущения человека.
Tes - Эффективная температура на солнце - температура, которую ощущает человек, с поправкой на солнечный нагрев. Характеристика знойности погоды. Зависит от высоты солнца над горизонтом, облачности и скорости ветра. Ночью, в пасмурную погоду, а также при ветре 12 м/с и более поправка равна нулю.
P - Атмосферное давление - приведенное к уровню моря атмосферное давление.
Po - Атмосферное давление - измеренное на уровне метеостанции атмосферное давление.
Tmin - Минимальная температура - минимум температуры воздуха на высоте 2 м над землей.
Tmax - Максимальная температура - максимум температуры воздуха на высоте 2 м над землей.
R - Количество осадков - Количество выпавших осадков за период времени, мм. При наведении курсора мыши на число - период времени, за который выпало указанное количество осадков.
R24 - Количество осадков - Количество выпавших осадков за 24 часа, мм.
S - Снежный покров - Высота снежного покрова, см. При наведении курсора мыши на число - состояние снежного покрова и степень покрытия местности в баллах.